Rugby, ND

5:45 AM CST on December 07, 2019 (GMT -0600)
Rugby Municipal

Weather History for KRUG - October, 2019

Change the Weather History Date:

Friday, October 11, 2019

  Actual Average Record
Temperature  
Mean Temperature 27 °F -  
Max Temperature 28 °F 58 °F 79 °F (1953)
Min Temperature 26 °F 35 °F 15 °F (1959)
Degree Days  
Heating Degree Days 38    
Moisture  
Dew Point 28 °F    
Average Humidity 99    
Maximum Humidity 100    
Minimum Humidity 93    
Precipitation  
Precipitation 0.00 in - - ()
Sea Level Pressure  
Sea Level Pressure 29.80 in    
Wind  
Wind Speed 29 mph (NW)    
Max Wind Speed 44 mph    
Max Gust Speed 54 mph    
Visibility 1 miles    
Events Rain , Snow    
Averages and records for this station are not official NWS values.
T = Trace of Precipitation, MM = Missing Value Source: NWS Daily Summary

Daily Weather History Graph

Daily Weather History Graph

Search for Another Location

Airport or City:

Astronomy

Oct. 11, 2019 Rise Set
Actual Time 7:53 AM CDT 6:59 PM CDT
Civil Twilight 7:22 AM CDT 7:30 PM CDT
Nautical Twilight 6:46 AM CDT 8:06 PM CDT
Astronomical Twilight 6:09 AM CDT 8:42 PM CDT
Moon 6:43 PM CDT (10/11) 5:18 AM CDT (10/11)
Length of Visible Light 12h 08m
Length of Day
11h 05m
Waxing Gibbous, 96% of the Moon is Illuminated
Oct 11
Waxing Gibbous
Oct 13
Full
Oct 21
Last Quarter
Oct 27
New
Nov 4
First Quarter

Hourly Weather History & Observations

Time (CDT) Temp. Windchill Dew Point Humidity Pressure Visibility Wind Dir Wind Speed Gust Speed Precip Events Conditions
12:15 AM 28.4 °F 14.7 °F 28.4 °F 100% 30.02 in 2.5 mi NNW 21.9 mph 28.8 mph N/A Snow Light Snow
12:35 AM 28.4 °F 14.4 °F 28.4 °F 100% 30.01 in 1.5 mi NNW 23.0 mph 31.1 mph N/A Snow Light Snow
12:55 AM 28.4 °F 14.1 °F 28.4 °F 100% 29.99 in 1.8 mi NNW 24.2 mph - N/A Snow Light Snow
1:15 AM 28.4 °F 14.4 °F 28.4 °F 100% 29.98 in 2.0 mi NNW 23.0 mph 31.1 mph N/A Snow Light Snow
1:35 AM 28.4 °F 14.4 °F 28.4 °F 100% 29.97 in 1.5 mi NW 23.0 mph 34.5 mph N/A Snow Light Snow
1:55 AM 28.4 °F 14.7 °F 28.4 °F 100% 29.97 in 2.5 mi NW 21.9 mph 29.9 mph N/A Snow Light Snow
2:15 AM 28.4 °F 13.8 °F 28.4 °F 100% 29.96 in 3.0 mi NW 25.3 mph 31.1 mph N/A Snow Light Snow
2:35 AM 28.4 °F 14.4 °F 28.4 °F 100% 29.96 in 5.0 mi NNW 23.0 mph - N/A Snow Light Snow
2:55 AM 28.4 °F 14.7 °F 26.6 °F 93% 29.95 in 6.0 mi NW 21.9 mph 29.9 mph N/A Snow Light Snow
3:15 AM 28.4 °F 14.4 °F 26.6 °F 93% 29.95 in 5.0 mi NW 23.0 mph 29.9 mph N/A Snow Light Snow
3:35 AM 28.4 °F 14.1 °F 26.6 °F 93% 29.94 in 4.0 mi NNW 24.2 mph - N/A Snow Light Snow
3:55 AM 28.4 °F 15.1 °F 26.6 °F 93% 29.93 in 4.0 mi NW 20.7 mph 29.9 mph N/A Snow Light Snow
4:15 AM 28.4 °F 14.1 °F 26.6 °F 93% 29.91 in 2.0 mi NW 24.2 mph - N/A Snow Light Snow
4:35 AM 28.4 °F 14.4 °F 28.4 °F 100% 29.90 in 1.2 mi NW 23.0 mph 33.4 mph N/A Snow Light Snow
4:55 AM 28.4 °F 14.4 °F 26.6 °F 93% 29.90 in 1.5 mi NW 23.0 mph 31.1 mph N/A Snow Light Snow
5:15 AM 28.4 °F 13.3 °F 26.6 °F 93% 29.88 in 2.0 mi NW 27.6 mph 33.4 mph N/A Snow Light Snow
5:35 AM 28.4 °F 12.7 °F 26.6 °F 93% 29.87 in 2.0 mi NW 29.9 mph 38.0 mph N/A Snow Light Snow
5:55 AM 28.4 °F 12.5 °F 26.6 °F 93% 29.88 in 2.5 mi NW 31.1 mph 36.8 mph N/A Snow Light Snow
6:15 AM 28.4 °F 13.8 °F 26.6 °F 93% 29.88 in 3.0 mi NW 25.3 mph 32.2 mph N/A Snow Light Snow
6:35 AM 26.6 °F 11.1 °F 26.6 °F 100% 29.88 in 0.8 mi NW 26.5 mph 33.4 mph N/A Snow Light Snow
6:55 AM 26.6 °F 11.4 °F 26.6 °F 100% 29.87 in 0.8 mi NW 25.3 mph 33.4 mph N/A Snow Light Snow
7:15 AM 26.6 °F 11.7 °F 26.6 °F 100% 29.87 in 1.5 mi NW 24.2 mph 33.4 mph N/A   Unknown
7:35 AM 26.6 °F 10.6 °F 26.6 °F 100% 29.87 in 1.5 mi NW 28.8 mph - N/A   Unknown
7:55 AM 26.6 °F 9.6 °F 26.6 °F 100% 29.86 in 0.5 mi NW 33.4 mph 39.1 mph N/A   Overcast
8:55 AM 26.6 °F 11.1 °F 26.6 °F 100% 29.86 in 0.2 mi NW 26.5 mph 44.9 mph N/A   Overcast
9:15 AM 26.6 °F 9.6 °F 26.6 °F 100% 29.85 in 0.2 mi NW 33.4 mph 39.1 mph N/A   Mostly Cloudy
9:35 AM 26.6 °F 9.1 °F 26.6 °F 100% 29.86 in 0.5 mi NW 35.7 mph - N/A   Unknown
9:55 AM 26.6 °F 9.6 °F 26.6 °F 100% 29.85 in 0.5 mi NW 33.4 mph - N/A   Unknown
10:15 AM 26.6 °F 9.6 °F 26.6 °F 100% 29.84 in 0.2 mi NW 33.4 mph 40.3 mph N/A Snow Snow
10:35 AM 26.6 °F 10.0 °F 26.6 °F 100% 29.83 in 0.5 mi NW 31.1 mph 36.8 mph N/A   Unknown
10:55 AM 26.6 °F 9.6 °F 26.6 °F 100% 29.82 in 0.2 mi NW 33.4 mph 40.3 mph N/A   Unknown
11:15 AM 26.6 °F 10.0 °F 26.6 °F 100% 29.81 in 0.2 mi NW 31.1 mph 41.4 mph N/A Snow Snow
11:35 AM 26.6 °F 9.1 °F 26.6 °F 100% 29.79 in 0.2 mi NW 35.7 mph 44.9 mph N/A   Unknown
11:55 AM 26.6 °F 9.1 °F 26.6 °F 100% 29.78 in 0.2 mi NW 35.7 mph 42.6 mph N/A   Unknown
12:15 PM 26.6 °F 8.5 °F 26.6 °F 100% 29.78 in 0.2 mi NW 39.1 mph 46.0 mph N/A   Unknown
12:35 PM 26.6 °F 9.1 °F 26.6 °F 100% 29.77 in 0.2 mi NW 35.7 mph 44.9 mph N/A   Unknown
12:55 PM 26.6 °F 8.7 °F 26.6 °F 100% 29.77 in 0.2 mi NW 38.0 mph 47.2 mph N/A   Unknown
1:15 PM 26.6 °F 8.7 °F 26.6 °F 100% 29.76 in 0.5 mi NW 38.0 mph - N/A   Unknown
1:35 PM 26.6 °F 8.9 °F 26.6 °F 100% 29.76 in 0.5 mi NW 36.8 mph - N/A Rain Light Freezing Rain
1:55 PM 26.6 °F 9.1 °F 26.6 °F 100% 29.76 in 0.2 mi NW 35.7 mph 44.9 mph N/A Rain Light Freezing Rain
2:15 PM 28.4 °F 11.8 °F 28.4 °F 100% 29.75 in 0.8 mi NW 34.5 mph 43.7 mph N/A Rain Light Freezing Rain
2:35 PM 28.4 °F 11.4 °F 28.4 °F 100% 29.74 in 0.2 mi NW 36.8 mph 48.3 mph N/A Rain Light Freezing Rain
2:55 PM - - - N/A% 29.74 in 0.2 mi NW 35.7 mph 51.8 mph N/A Rain Heavy Rain
3:15 PM - - - N/A% 29.74 in 0.2 mi NW 40.3 mph 50.6 mph N/A Rain Heavy Rain
3:35 PM 28.4 °F 12.5 °F 28.4 °F 100% 29.75 in 0.5 mi NW 31.1 mph - N/A Rain Light Freezing Rain
3:55 PM 28.4 °F 12.3 °F 28.4 °F 100% 29.75 in 0.5 mi NW 32.2 mph 40.3 mph N/A Rain Light Freezing Rain
4:15 PM 28.4 °F 12.5 °F 28.4 °F 100% 29.74 in 0.5 mi NW 31.1 mph 38.0 mph N/A Rain Light Freezing Rain
4:35 PM 28.4 °F 11.6 °F 28.4 °F 100% 29.73 in 0.2 mi NW 35.7 mph 41.4 mph N/A Rain Light Freezing Rain
4:55 PM 28.4 °F 11.0 °F 28.4 °F 100% 29.72 in 0.2 mi NW 39.1 mph - N/A Rain Light Freezing Rain
5:15 PM 28.4 °F 11.2 °F 28.4 °F 100% 29.72 in 0.2 mi NW 38.0 mph 47.2 mph N/A Rain Light Freezing Rain
5:35 PM 28.4 °F 11.6 °F 28.4 °F 100% 29.71 in 0.2 mi NW 35.7 mph 46.0 mph N/A Snow Snow
5:55 PM 28.4 °F 11.6 °F 28.4 °F 100% 29.72 in 0.2 mi NW 35.7 mph 46.0 mph N/A Snow Snow
6:15 PM 28.4 °F 11.6 °F 28.4 °F 100% 29.72 in 0.2 mi NW 35.7 mph 42.6 mph N/A Rain Light Freezing Rain
6:35 PM 28.4 °F 11.6 °F 28.4 °F 100% 29.71 in 0.2 mi NW 35.7 mph 47.2 mph N/A Rain Light Freezing Rain
6:55 PM 28.4 °F 10.8 °F 28.4 °F 100% 29.70 in 0.2 mi NW 40.3 mph 47.2 mph N/A Snow Heavy Snow
7:15 PM 28.4 °F 10.6 °F 28.4 °F 100% 29.70 in 0.2 mi NW 41.4 mph 48.3 mph N/A Snow Light Snow
7:35 PM 28.4 °F 10.2 °F 28.4 °F 100% 29.69 in 0.2 mi NW 43.7 mph 54.1 mph N/A Rain Light Freezing Rain
7:55 PM 28.4 °F 12.0 °F 28.4 °F 100% 29.69 in 0.2 mi NW 33.4 mph 47.2 mph N/A Snow Snow
8:15 PM 28.4 °F 11.8 °F 28.4 °F 100% 29.68 in 0.2 mi NW 34.5 mph 47.2 mph N/A   Unknown
8:35 PM 28.4 °F 11.4 °F 28.4 °F 100% 29.67 in 0.2 mi NW 36.8 mph 49.5 mph N/A Rain Light Freezing Rain
8:55 PM 28.4 °F 11.2 °F 28.4 °F 100% 29.66 in 0.2 mi NW 38.0 mph 48.3 mph N/A   Overcast
9:15 PM 28.4 °F 11.4 °F 28.4 °F 100% 29.65 in 0.2 mi NW 36.8 mph 49.5 mph N/A Snow Light Snow
9:35 PM 28.4 °F 11.8 °F 28.4 °F 100% 29.64 in 0.5 mi NW 34.5 mph 47.2 mph N/A Snow Light Snow
9:55 PM 28.4 °F 10.8 °F 28.4 °F 100% 29.64 in 0.2 mi NW 40.3 mph 48.3 mph N/A   Overcast
10:15 PM 28.4 °F 11.0 °F 28.4 °F 100% 29.63 in 0.2 mi NW 39.1 mph 51.8 mph N/A Rain Light Freezing Rain
10:35 PM 28.4 °F 11.2 °F 28.4 °F 100% 29.63 in 0.2 mi NW 38.0 mph 51.8 mph N/A Rain Light Freezing Rain
10:55 PM 28.4 °F 11.4 °F 28.4 °F 100% 29.62 in 0.2 mi NW 36.8 mph 50.6 mph N/A Snow Light Snow
11:15 PM 28.4 °F 11.4 °F 28.4 °F 100% 29.60 in 0.2 mi NW 36.8 mph 47.2 mph N/A Snow Light Snow
11:35 PM 28.4 °F 10.8 °F 28.4 °F 100% 29.59 in 0.2 mi NW 40.3 mph - N/A Rain Light Freezing Rain
11:55 PM 28.4 °F 10.4 °F 28.4 °F 100% 29.59 in 0.5 mi NW 42.6 mph 52.9 mph N/A   Overcast